Flag for U.S.A. Weather past 2 weeks in Plano, Texas, U.S.A.

Now
66 °F

Strong thunderstorms. Fog.


Feels Like: 66 °F
Forecast: 69 / 79 °F
Wind: 7 mph from North

Location: McKinney Municipal Airport

Current Time: May 29, 2015 at 4:24:13 AM

Latest Report: May 29, 2015 at 3:53 AM


Visibility: 3 mi

Pressure: 29.92 "Hg

Humidity: 100%

Dew point: 66 °F

Location of PlanoLocation

Historic Weather in Plano — Graph

°F

Plano temperature yesterday

Maximum temperature yesterday: 86 °F (at 2:53 PM)
Minimum temperature yesterday: 68 °F (at 11:53 PM)
Average temperature yesterday: 77 °F

Past Weeks' High & Low Weather Summary

 TemperatureHumidityPressure
High88 °F (May 18, 2:53 PM)100% (May 18, 5:53 AM)30.23 "Hg (May 18, 5:53 AM)
Low55 °F (May 21, 6:53 AM)41% (May 26, 8:00 PM)29.72 "Hg (May 16, 6:53 PM)
Average72 °F84%29.99 "Hg
* Reported May 14 2:53 AM — May 29 2:55 AM, Plano, Weather by CustomWeather, © 2015

Note: Actual official high and low records may vary slightly from our data, if they occured in-between our weather recording intervals... More about our weather records

Advertising

Plano weather history for previous 24 hours

 ConditionsComfort  
Time TempWeatherWind HumidityBarometerVisibility
2:55 AM
Fri, May 29
67 °FStrong thunderstorms. Fog.7 mph97%29.96 "Hg2 mi
2:01 AM67 °FThundershowers. Mostly cloudy.10 mph93%29.94 "Hg10 mi
12:53 AM67 °FThunderstorms. Mostly cloudy.16 mph93%29.96 "Hg10 mi
11:53 PM
Thu, May 28
68 °FThunderstorms. Overcast.14 mph90%29.95 "Hg10 mi
11:01 PM72 °FThundershowers. Mostly cloudy.8 mph76%30.00 "Hg10 mi
9:53 PM78 °FPassing clouds.7 mph82%29.94 "Hg10 mi
8:53 PM78 °FSunny.9 mph84%29.93 "Hg10 mi
7:53 PM78 °FSunny.7 mph76%29.90 "Hg10 mi
6:53 PM79 °FThundershowers. Passing clouds.13 mph67%29.90 "Hg10 mi
5:53 PM86 °FSunny.14 mph59%29.92 "Hg10 mi
4:53 PM84 °FBroken clouds.14 mph63%29.96 "Hg10 mi
3:53 PM86 °FScattered clouds.13 mph61%29.94 "Hg10 mi
2:53 PM86 °FPassing clouds.12 mph61%29.98 "Hg10 mi
1:53 PM83 °FBroken clouds.15 mph68%30.02 "Hg10 mi
12:53 PM83 °FScattered clouds.15 mph70%30.06 "Hg10 mi
11:53 AM79 °FMostly cloudy.7 mph74%30.09 "Hg10 mi
10:53 AM77 °FPartly sunny.9 mph79%30.09 "Hg10 mi
9:53 AM76 °FOvercast.No wind85%30.09 "Hg10 mi
8:53 AM75 °FBroken clouds.6 mph88%30.07 "Hg10 mi
7:53 AM75 °FOvercast.8 mph88%30.05 "Hg10 mi
6:53 AM73 °FPassing clouds.7 mph94%30.03 "Hg10 mi
5:53 AM73 °FClear.9 mph94%30.03 "Hg10 mi
4:53 AM73 °FPassing clouds.6 mph94%30.02 "Hg10 mi
Weather by CustomWeather, © 2015

See weather overviewHow to use our weather pages